Theta_e
333 334 333 342 334 330 328 328 331 330 329 331 332 333 332 331 330 328 328 327 325 325 326 322 321 320 320 318 316 313 312 311 305 307 311 313 313 312 313 317 321 316 315
324 323 328 337 341 335 333 337 333 330 331 331 333 332 332 331 331 329 329 328 325 325 323 321 322 324 318 317 316 312 312 311 311 307 307 309 308 310 313 315 318 318 313
322 325 323 332 329 332 335 335 334 331 332 332 332 331 332 331 330 331 329 328 325 325 323 322 321 319 317 317 314 313 312 312 309 307 305 306 308 309 313 312 312 311 315
327 322 325 326 324 336 335 336 332 331 332 330 331 332 332 331 331 330 329 328 324 326 325 324 322 320 319 317 313 309 307 306 305 304 303 303 305 309 310 307 306 308 308
328 329 322 320 320 332 335 337 334 334 332 331 330 331 331 330 330 329 329 328 324 322 324 323 322 323 322 317 311 307 306 304 303 302 302 302 303 305 305 306 304 305 306
325 329 329 334 334 330 333 334 333 331 332 331 330 330 328 329 318 313 324 326 324 322 322 322 322 322 317 314 313 312 309 304 302 302 301 301 302 303 306 304 302 301 300
323 326 328 322 325 322 329 331 330 329 330 330 330 330 327 325 311 312 315 324 323 322 322 321 322 323 318 315 311 310 309 308 307 302 300 301 302 305 306 307 301 301 301
321 323 324 325 331 331 330 330 329 329 328 328 328 328 326 326 310 308 312 323 322 323 323 322 320 315 317 316 312 309 308 309 308 309 303 304 304 307 306 306 303 302 302
320 319 319 321 324 331 329 328 327 327 327 327 328 328 325 324 307 305 313 325 323 322 323 322 320 318 312 306 308 306 305 305 310 307 305 303 302 301 302 301 300 298 300
317 318 317 316 317 321 326 326 329 326 325 328 328 329 324 323 303 304 313 325 320 319 318 319 314 315 305 303 306 304 302 303 304 303 303 303 303 305 305 302 302 300 299
318 317 314 312 313 316 316 324 325 326 328 326 327 328 330 319 309 303 307 322 322 318 318 315 303 300 300 298 299 302 302 302 301 300 299 300 301 302 304 305 305 305 305
316 315 310 308 309 313 309 312 318 323 324 326 326 325 324 318 308 302 304 307 310 316 310 307 300 297 296 296 297 297 297 298 297 297 297 299 299 301 303 305 311 310 310
313 311 313 312 307 306 305 306 307 307 307 307 317 323 313 311 305 299 299 300 303 304 305 301 298 296 296 296 296 296 296 296 296 296 298 299 301 305 309 309 310 311 311
310 312 310 310 307 306 306 306 306 304 303 302 303 310 306 306 304 306 304 303 301 304 305 303 302 299 299 300 299 300 300 299 299 300 301 305 307 307 306 306 304 304 303
309 309 309 308 301 301 297 296 302 303 304 301 299 301 299 298 296 297 300 303 303 298 300 300 299 299 299 301 303 303 303 303 301 302 303 301 301 301 302 305 304 303 301
307 308 310 307 301 303 301 298 294 294 294 296 297 300 298 296 297 294 294 294 292 292 297 296 296 298 299 300 301 302 300 300 299 298 297 297 298 301 301 301 301 299 299
305 305 306 307 308 304 304 301 297 297 295 293 293 294 296 295 294 294 293 292 291 293 296 296 298 300 302 301 301 300 298 298 298 297 298 300 300 299 296 297 297 297 297
306 303 307 306 305 304 302 303 302 300 298 298 295 296 296 294 293 292 291 294 295 293 296 297 301 299 298 297 296 297 296 297 300 299 299 299 298 297 296 296 296 296 296
305 304 306 307 307 305 305 302 303 303 301 300 296 295 293 292 291 291 293 296 300 300 299 298 299 298 296 297 297 296 298 298 298 298 298 297 297 296 295 296 296 291 292
305 302 304 306 304 303 303 303 303 304 302 299 297 297 297 294 295 295 293 294 298 297 298 296 297 297 297 296 295 297 297 296 296 296 296 296 297 296 295 296 296 295 295
305 304 295 304 304 304 303 302 301 303 299 297 299 297 290 295 298 297 297 297 296 296 295 295 296 296 297 297 297 296 295 295 295 295 296 296 297 296 297 297 296 296 296
305 305 305 305 305 305 303 301 299 300 299 296 294 291 289 299 297 296 296 296 297 297 296 296 297 297 298 298 297 296 295 295 295 295 295 296 296 296 297 296 296 296 296
304 304 303 303 303 297 299 299 299 299 299 297 296 297 297 295 295 297 297 297 297 298 299 299 298 298 299 299 298 297 295 295 295 296 295 295 295 295 296 296 296 296 296
303 303 303 302 301 300 299 300 299 295 298 301 299 298 297 298 298 298 298 298 297 299 299 300 299 297 297 296 295 294 294 294 294 294 294 293 293 293 295 295 296 297 298
302 301 300 299 300 299 298 299 297 299 299 300 300 300 300 300 299 299 299 298 298 298 298 298 299 297 296 294 292 292 290 287 287 287 289 290 291 292 293 294 296 299 299
299 299 300 299 299 298 297 296 295 296 296 297 297 298 299 298 299 300 297 297 297 297 297 295 295 294 294 291 289 287 287 287 287 286 288 290 290 291 292 294 296 298 300
Wind_Speed
10 13 3 11 17 15 14 13 13 13 15 13 15 14 12 12 9 8 8 8 8 7 5 6 5 4 3 1 1 1 1 2 2 4 3 3 4 6 8 6 4 5 5
8 6 7 12 17 14 13 14 15 17 14 18 17 16 14 13 11 11 10 10 10 8 7 7 6 4 4 3 2 1 0 1 2 5 3 3 4 6 4 5 5 4 5
10 12 12 11 5 3 9 11 15 17 17 16 17 17 17 16 16 13 12 12 11 10 9 8 8 7 4 2 2 1 1 1 2 1 5 2 3 2 3 3 4 4 5
6 17 19 19 23 21 21 17 17 19 16 17 16 15 15 14 15 17 16 11 11 10 10 9 8 7 7 5 4 2 1 1 2 2 3 3 2 3 1 2 5 3 6
14 13 15 8 3 8 13 13 12 14 14 16 13 11 13 13 14 19 17 16 14 10 8 8 8 8 9 8 4 3 2 1 1 2 3 2 4 4 3 2 2 4 5
8 12 9 6 3 11 7 14 12 11 14 15 16 13 13 11 11 5 8 10 9 9 8 7 8 10 8 8 8 8 7 4 2 2 2 3 4 2 3 2 2 3 4
7 8 1 1 4 18 20 14 16 14 10 11 12 14 14 8 9 14 11 6 8 9 8 7 6 5 7 5 7 5 4 6 7 5 5 4 4 3 3 2 1 2 4
6 7 9 7 3 8 9 12 12 12 14 12 12 10 9 8 11 13 13 8 7 7 8 8 7 7 6 7 6 5 6 5 5 4 7 8 6 5 3 4 4 4 4
3 5 6 8 5 7 10 10 8 9 10 12 12 12 8 7 14 15 14 7 7 8 7 7 7 7 8 10 6 6 4 3 4 5 4 5 6 8 6 1 4 2 4
5 5 4 7 8 6 7 9 9 7 9 8 11 13 14 9 14 17 15 7 8 6 6 6 10 8 9 9 6 5 4 4 1 3 6 6 6 7 10 6 4 4 3
7 5 6 5 8 7 6 4 6 7 9 11 11 7 11 12 11 17 18 10 10 7 6 4 2 7 9 9 5 4 5 4 3 3 4 5 5 6 5 5 7 7 6
5 6 6 6 5 5 7 6 3 3 6 7 7 6 4 9 16 12 14 12 11 9 6 4 5 8 9 9 6 7 8 4 2 3 3 5 5 5 5 5 6 6 7
4 6 5 5 5 5 5 5 5 6 5 4 3 4 4 2 5 13 17 16 15 8 5 8 11 7 6 4 9 10 5 3 4 3 5 6 5 6 5 5 4 4 5
3 5 3 4 7 7 5 5 5 5 6 5 6 6 6 5 4 4 6 7 11 8 8 6 4 0 5 6 5 5 4 5 5 5 5 5 3 2 3 3 3 3 4
4 6 5 5 5 4 6 6 4 4 5 11 8 10 10 10 7 12 10 5 4 5 6 2 2 1 2 4 4 4 4 3 3 1 1 3 3 4 6 4 4 5 6
6 5 5 5 4 3 4 5 13 11 13 8 17 17 10 17 13 12 15 13 9 7 4 2 1 2 3 4 2 2 2 4 3 1 2 2 4 6 5 5 5 6 8
5 5 4 5 5 4 3 4 4 5 12 11 7 9 17 12 19 17 10 5 3 6 3 4 1 2 2 3 2 0 1 0 1 1 2 5 6 5 5 6 6 6 7
8 8 7 6 5 5 4 4 4 4 3 4 7 6 13 14 12 5 7 8 3 3 2 2 2 2 0 1 2 3 1 0 1 3 5 6 5 7 6 6 6 7 6
7 4 5 4 5 5 4 4 3 6 5 5 3 4 4 10 9 5 6 4 4 3 2 1 1 1 1 3 1 3 4 4 4 6 6 6 7 6 7 7 7 8 7
5 6 9 5 4 5 3 4 3 4 5 5 4 3 3 3 1 3 2 1 2 2 2 2 2 4 4 3 3 5 6 5 5 6 7 7 7 7 8 8 7 7 5
4 3 4 4 4 8 5 4 4 6 6 4 4 3 4 3 6 5 4 4 3 2 1 2 2 3 3 4 5 6 6 6 7 7 7 7 7 8 7 8 7 6 5
2 5 3 4 4 4 4 4 5 8 6 6 4 3 7 5 5 5 5 2 2 2 3 3 4 4 4 5 6 7 7 7 7 7 8 8 8 8 8 8 7 7 6
8 8 6 2 4 6 6 5 4 6 6 5 6 5 4 4 4 4 4 3 2 3 4 3 4 4 4 4 5 6 7 7 7 7 9 8 8 8 8 7 7 7 7
1 10 6 2 7 8 8 7 5 6 6 7 6 4 4 4 4 3 2 2 3 3 3 2 3 5 4 4 4 5 6 7 7 8 10 9 10 8 7 7 9 10 9
5 5 4 5 7 6 6 6 6 7 7 6 4 3 4 4 3 2 2 1 1 2 4 4 4 6 8 8 8 11 12 13 10 8 7 10 11 9 6 8 10 8 10
6 6 5 4 6 6 6 6 6 7 7 6 5 7 6 5 4 2 5 5 4 4 6 4 7 10 12 9 13 17 17 17 12 7 7 8 7 5 7 11 12 8 9
Wind_Direction
176 200 231 192 193 189 175 184 182 191 193 172 181 185 187 177 178 174 170 166 164 177 158 175 197 194 202 105 65 80 76 128 218 292 263 302 315 315 310 315 326 5 350
211 205 210 243 199 199 203 180 173 197 189 178 180 187 189 181 179 183 174 178 172 173 171 172 202 203 194 155 115 102 196 336 168 294 296 317 308 309 317 31 18 12 343
217 215 226 217 301 183 221 216 193 187 185 185 177 193 192 186 181 189 187 178 177 181 175 174 199 184 202 177 144 45 356 348 351 340 301 292 290 348 334 346 7 343 337
203 208 208 204 186 203 200 189 186 194 179 180 187 197 194 192 200 196 185 175 180 187 185 178 183 180 195 164 132 175 251 5 344 351 294 300 301 310 359 8 346 336 333
7 166 211 247 289 228 198 194 171 180 186 189 175 191 197 202 208 201 191 183 177 185 182 169 170 175 169 167 151 200 192 187 307 300 299 306 310 344 319 303 6 314 306
349 10 112 115 109 43 294 180 171 185 186 193 190 190 210 217 229 240 201 186 168 173 179 176 162 161 180 193 175 183 171 170 228 235 244 272 274 275 291 333 1 4 328
22 359 42 172 135 152 201 202 168 176 188 199 202 204 209 222 206 182 198 163 165 169 165 166 166 174 176 169 210 202 177 217 199 213 252 236 262 242 268 294 272 236 261
43 12 355 357 203 180 190 194 182 175 183 191 214 208 207 201 195 195 188 156 147 155 166 166 171 158 172 168 156 169 198 209 237 217 212 242 241 269 243 242 220 259 281
96 80 0 337 329 200 188 199 197 188 194 201 205 200 205 199 178 186 183 153 153 165 171 170 165 178 186 167 176 197 219 264 273 306 219 237 258 280 260 286 274 272 291
34 105 68 347 317 322 214 204 199 181 204 211 210 209 199 176 183 178 189 157 152 148 162 178 180 185 183 176 182 188 211 238 270 323 318 319 305 289 275 201 213 234 237
11 76 59 19 325 318 323 241 199 193 195 207 223 216 203 172 181 188 192 167 164 159 169 159 115 144 142 153 156 175 197 156 255 264 287 290 289 273 274 249 215 214 231
14 56 50 22 346 345 337 353 72 189 201 203 212 215 170 183 172 172 160 142 149 157 150 137 138 150 146 164 183 231 234 238 246 260 267 268 267 274 275 268 263 229 236
65 50 33 30 15 8 44 35 53 66 78 49 325 216 131 171 124 142 122 117 114 111 115 131 152 163 172 212 234 242 229 207 207 222 237 243 237 255 266 279 265 249 249
138 99 48 48 14 7 34 39 74 78 83 63 56 77 60 49 46 13 78 99 94 94 94 94 100 275 261 252 278 262 218 204 194 217 228 245 260 296 308 305 278 274 275
185 151 139 100 81 34 30 10 19 22 73 111 85 80 87 56 345 58 56 32 45 94 104 85 85 40 299 282 268 254 265 165 184 241 359 342 328 311 290 285 273 287 278
175 163 156 135 135 115 76 52 25 33 15 89 118 118 109 122 87 41 59 49 23 57 34 72 241 220 253 262 311 52 83 84 104 168 243 240 285 288 287 291 285 285 282
199 157 155 157 151 155 156 132 103 39 62 36 42 117 119 136 123 122 129 137 113 31 40 274 305 317 359 45 28 36 211 318 273 317 309 306 287 283 281 283 280 276 269
320 194 166 163 156 170 167 144 159 147 116 95 23 74 105 105 111 125 135 145 103 104 222 315 24 67 69 263 266 281 300 36 315 312 286 277 269 271 272 267 268 266 265
311 220 169 165 161 159 134 143 188 134 135 122 90 33 93 96 97 101 70 50 45 89 146 202 28 59 329 267 7 294 295 319 294 277 275 270 264 257 263 258 258 247 252
270 196 148 144 169 92 128 165 165 138 138 134 144 167 139 77 146 68 98 34 216 134 99 68 312 262 253 4 320 290 292 285 276 269 264 256 255 252 253 257 247 248 241
158 143 131 136 158 145 199 203 178 120 116 103 127 120 126 104 94 121 105 112 97 68 323 11 301 306 311 287 283 283 270 266 259 258 258 259 254 251 249 246 246 246 244
31 151 164 155 173 156 130 112 91 112 124 111 95 71 100 90 83 90 89 77 70 15 345 329 317 317 295 282 277 269 264 261 258 258 259 256 254 251 248 243 242 244 239
11 111 87 61 107 130 120 112 102 101 115 113 112 102 92 97 102 98 96 71 358 296 277 277 282 282 267 263 274 283 281 275 267 257 256 252 251 247 244 247 246 245 234
38 71 65 48 104 97 94 110 115 100 101 119 106 124 129 102 114 128 127 170 248 266 304 334 282 288 306 324 308 289 280 276 268 264 264 262 260 252 241 249 249 246 245
161 146 128 113 108 103 92 90 84 82 73 88 117 137 123 125 131 137 224 199 225 18 15 3 349 340 1 346 343 331 317 291 266 256 257 250 248 251 253 256 255 249 242
53 65 73 67 77 79 84 87 85 86 88 86 69 60 66 73 98 64 45 63 47 37 28 348 357 2 3 0 350 340 330 320 307 269 240 234 244 254 250 246 248 247 250